Worthington, MN

11:04 PM CST on December 09, 2019 (GMT -0600)
Worthington Municipal

Weather History for KOTG - October, 2019

Change the Weather History Date:

Thursday, October 31, 2019

  Actual Average Record
Temperature  
Mean Temperature 26 °F -  
Max Temperature 37 °F 47 °F 68 °F (1999)
Min Temperature 14 °F 31 °F 13 °F (1991)
Degree Days  
Heating Degree Days 40    
Moisture  
Dew Point 14 °F    
Average Humidity 65    
Maximum Humidity 92    
Minimum Humidity 30    
Precipitation  
Precipitation 0.00 in - - ()
Sea Level Pressure  
Sea Level Pressure 30.16 in    
Wind  
Wind Speed 7 mph (West)    
Max Wind Speed 16 mph    
Max Gust Speed 22 mph    
Visibility 10 miles    
Events      
Averages and records for this station are not official NWS values.
T = Trace of Precipitation, MM = Missing Value Source: NWS Daily Summary

Daily Weather History Graph

Daily Weather History Graph

Search for Another Location

Airport or City:

Astronomy

Oct. 31, 2019 Rise Set
Actual Time 7:56 AM CDT 6:14 PM CDT
Civil Twilight 7:26 AM CDT 6:44 PM CDT
Nautical Twilight 6:52 AM CDT 7:18 PM CDT
Astronomical Twilight 6:19 AM CDT 7:51 PM CDT
Moon 11:51 AM CDT (10/31) 9:06 PM CDT (10/31)
Length of Visible Light 11h 17m
Length of Day
10h 18m
Waxing Crescent, 16% of the Moon is Illuminated
Oct 31
Waxing Crescent
Nov 4
First Quarter
Nov 12
Full
Nov 19
Last Quarter
Nov 26
New

Hourly Weather History & Observations

Time (CDT) Temp. Windchill Dew Point Humidity Pressure Visibility Wind Dir Wind Speed Gust Speed Precip Events Conditions
12:56 AM 16.0 °F 8.8 °F 12.9 °F 88% 30.27 in 10.0 mi West 4.6 mph - N/A   Clear
1:56 AM 16.0 °F 7.4 °F 12.9 °F 88% 30.25 in 10.0 mi WNW 5.8 mph - N/A   Clear
2:56 AM 15.1 °F 7.7 °F 12.0 °F 88% 30.23 in 10.0 mi West 4.6 mph - N/A   Clear
3:56 AM 16.0 °F 8.8 °F 12.9 °F 88% 30.23 in 10.0 mi West 4.6 mph - N/A   Clear
4:56 AM 17.1 °F 10.0 °F 14.0 °F 88% 30.22 in 10.0 mi WNW 4.6 mph - N/A   Clear
5:56 AM 15.1 °F 6.4 °F 12.0 °F 88% 30.22 in 10.0 mi West 5.8 mph - N/A   Clear
6:56 AM 16.0 °F 5.3 °F 12.0 °F 84% 30.21 in 10.0 mi West 8.1 mph - N/A   Clear
7:56 AM 14.0 °F 6.5 °F 12.0 °F 92% 30.22 in 10.0 mi West 4.6 mph - N/A   Clear
8:56 AM 18.0 °F 11.1 °F 15.1 °F 88% 30.21 in 10.0 mi WNW 4.6 mph - N/A   Clear
9:56 AM 24.1 °F 17.0 °F 19.0 °F 81% 30.20 in 10.0 mi WNW 5.8 mph - N/A   Clear
10:56 AM 28.9 °F 19.8 °F 19.9 °F 69% 30.19 in 10.0 mi NW 10.4 mph - N/A   Clear
11:56 AM 32.0 °F 22.1 °F 19.0 °F 59% 30.18 in 10.0 mi NW 13.8 mph - N/A   Clear
12:56 PM 34.0 °F 25.0 °F 17.1 °F 50% 30.16 in 10.0 mi WNW 12.7 mph 17.3 mph N/A   Clear
1:56 PM 35.1 °F 27.9 °F 18.0 °F 50% 30.14 in 10.0 mi West 9.2 mph - N/A   Clear
2:56 PM 37.0 °F 29.3 °F 15.1 °F 41% 30.12 in 10.0 mi West 11.5 mph - N/A   Clear
3:56 PM 37.9 °F 28.9 °F 10.9 °F 33% 30.11 in 10.0 mi West 16.1 mph 21.9 mph N/A   Clear
4:56 PM 37.9 °F 29.6 °F 9.0 °F 30% 30.10 in 10.0 mi WSW 13.8 mph - N/A   Clear
5:56 PM 35.1 °F 27.4 °F 10.0 °F 35% 30.11 in 10.0 mi WSW 10.4 mph - N/A   Clear
6:56 PM 30.9 °F 22.2 °F 14.0 °F 50% 30.11 in 10.0 mi SW 10.4 mph - N/A   Clear
7:56 PM 30.9 °F 22.2 °F 15.1 °F 52% 30.11 in 10.0 mi SW 10.4 mph - N/A   Clear
8:56 PM 28.9 °F 20.4 °F 15.1 °F 56% 30.09 in 10.0 mi SSW 9.2 mph - N/A   Clear
9:56 PM 30.0 °F 23.2 °F 15.1 °F 54% 30.08 in 10.0 mi SSW 6.9 mph - N/A   Mostly Cloudy
10:56 PM 32.0 °F 24.8 °F 16.0 °F 52% 30.06 in 10.0 mi SSW 8.1 mph - N/A   Overcast
11:56 PM 33.1 °F 24.4 °F 14.0 °F 46% 30.04 in 10.0 mi SSW 11.5 mph - N/A   Overcast